Time,TemperatureF,DewpointF,PressureIn,WindDirection,WindDirectionDegrees,WindSpeedMPH,WindSpeedGustMPH,Humidity,HourlyPrecipIn,Conditions,Clouds,dailyrainin,SoftwareType,DateUTC
2013-01-15 00:02:00,26.7,7.7,30.33,WNW,284,0.0,0.0,44,0.00,,,0.00,Wunderground v.1.15,2013-01-15 07:02:00,
2013-01-15 00:08:00,26.7,8.2,30.33,WNW,284,0.0,0.0,45,0.00,,,0.00,Wunderground v.1.15,2013-01-15 07:08:00,
2013-01-15 00:14:00,26.5,8.5,30.33,WNW,284,0.0,0.0,46,0.00,,,0.00,Wunderground v.1.15,2013-01-15 07:14:00,
2013-01-15 00:20:00,26.2,8.7,30.33,WNW,284,0.0,0.0,47,0.00,,,0.00,Wunderground v.1.15,2013-01-15 07:20:00,
2013-01-15 00:26:00,25.9,8.9,30.33,WNW,284,0.0,0.0,48,0.00,,,0.00,Wunderground v.1.15,2013-01-15 07:26:00,
2013-01-15 00:32:00,25.6,8.6,30.33,West,279,0.0,0.0,48,0.00,,,0.00,Wunderground v.1.15,2013-01-15 07:32:00,
2013-01-15 00:38:00,25.4,9.3,30.33,West,279,0.0,0.0,50,0.00,,,0.00,Wunderground v.1.15,2013-01-15 07:38:00,
2013-01-15 00:44:00,25.2,9.1,30.33,West,279,0.0,0.0,50,0.00,,,0.00,Wunderground v.1.15,2013-01-15 07:44:00,
2013-01-15 00:50:00,24.9,9.3,30.33,West,262,0.0,0.0,51,0.00,,,0.00,Wunderground v.1.15,2013-01-15 07:50:00,
2013-01-15 00:56:00,24.7,9.1,30.33,West,262,0.0,0.0,51,0.00,,,0.00,Wunderground v.1.15,2013-01-15 07:56:00,
2013-01-15 01:02:00,24.5,9.4,30.33,West,262,0.0,0.0,52,0.00,,,0.00,Wunderground v.1.15,2013-01-15 08:02:00,
2013-01-15 01:08:00,24.4,9.7,30.34,West,262,0.0,0.0,53,0.00,,,0.00,Wunderground v.1.15,2013-01-15 08:08:00,
2013-01-15 01:14:00,24.3,10.0,30.34,West,262,0.0,0.0,54,0.00,,,0.00,Wunderground v.1.15,2013-01-15 08:14:00,
2013-01-15 01:20:00,24.1,9.4,30.34,West,262,0.0,1.0,53,0.00,,,0.00,Wunderground v.1.15,2013-01-15 08:20:00,
2013-01-15 01:26:00,24.0,9.3,30.35,West,271,0.0,1.0,53,0.00,,,0.00,Wunderground v.1.15,2013-01-15 08:26:00,
2013-01-15 01:32:00,24.0,8.9,30.35,West,271,0.0,0.0,52,0.00,,,0.00,Wunderground v.1.15,2013-01-15 08:32:00,
2013-01-15 01:38:00,23.8,9.1,30.35,West,271,0.0,0.0,53,0.00,,,0.00,Wunderground v.1.15,2013-01-15 08:38:00,
2013-01-15 01:44:00,23.7,9.0,30.35,West,271,0.0,0.0,53,0.00,,,0.00,Wunderground v.1.15,2013-01-15 08:44:00,
2013-01-15 01:50:00,23.4,9.2,30.35,West,271,0.0,0.0,54,0.00,,,0.00,Wunderground v.1.15,2013-01-15 08:50:00,
2013-01-15 01:56:00,23.3,9.5,30.35,West,271,0.0,0.0,55,0.00,,,0.00,Wunderground v.1.15,2013-01-15 08:56:00,
2013-01-15 02:02:00,23.2,9.8,30.36,West,271,0.0,0.0,56,0.00,,,0.00,Wunderground v.1.15,2013-01-15 09:02:00,
2013-01-15 02:10:00,23.0,9.6,30.36,West,271,0.0,0.0,56,0.00,,,0.00,Wunderground v.1.15,2013-01-15 09:10:00,
2013-01-15 02:16:00,22.8,9.4,30.36,West,271,0.0,0.0,56,0.00,,,0.00,Wunderground v.1.15,2013-01-15 09:16:00,
2013-01-15 02:22:00,22.7,8.9,30.37,West,271,0.0,0.0,55,0.00,,,0.00,Wunderground v.1.15,2013-01-15 09:22:00,
2013-01-15 02:28:00,22.8,9.4,30.37,SW,231,0.0,0.0,56,0.00,,,0.00,Wunderground v.1.15,2013-01-15 09:28:00,
2013-01-15 02:34:00,22.7,9.7,30.37,SSW,207,0.0,0.0,57,0.00,,,0.00,Wunderground v.1.15,2013-01-15 09:34:00,
2013-01-15 02:40:00,22.6,9.6,30.37,SSW,207,0.0,0.0,57,0.00,,,0.00,Wunderground v.1.15,2013-01-15 09:40:00,
2013-01-15 02:46:00,22.5,9.5,30.37,SSW,207,0.0,0.0,57,0.00,,,0.00,Wunderground v.1.15,2013-01-15 09:46:00,
2013-01-15 02:52:00,22.3,9.4,30.37,SSW,207,0.0,0.0,57,0.00,,,0.00,Wunderground v.1.15,2013-01-15 09:52:00,
2013-01-15 02:58:00,22.3,9.0,30.37,South,170,0.0,0.0,56,0.00,,,0.00,Wunderground v.1.15,2013-01-15 09:58:00,
2013-01-15 03:04:00,22.5,8.7,30.38,South,170,0.0,0.0,55,0.00,,,0.00,Wunderground v.1.15,2013-01-15 10:04:00,
2013-01-15 03:10:00,22.6,9.2,30.39,South,170,0.0,0.0,56,0.00,,,0.00,Wunderground v.1.15,2013-01-15 10:10:00,
2013-01-15 03:16:00,22.6,9.2,30.39,South,170,0.0,0.0,56,0.00,,,0.00,Wunderground v.1.15,2013-01-15 10:16:00,
2013-01-15 03:22:00,22.5,9.5,30.39,South,170,0.0,0.0,57,0.00,,,0.00,Wunderground v.1.15,2013-01-15 10:22:00,
2013-01-15 03:28:00,22.5,9.5,30.39,South,170,0.0,0.0,57,0.00,,,0.00,Wunderground v.1.15,2013-01-15 10:28:00,
2013-01-15 03:34:00,22.4,9.8,30.39,South,170,0.0,0.0,58,0.00,,,0.00,Wunderground v.1.15,2013-01-15 10:34:00,
2013-01-15 03:40:00,22.2,10.0,30.39,South,170,0.0,0.0,59,0.00,,,0.00,Wunderground v.1.15,2013-01-15 10:40:00,
2013-01-15 03:46:00,21.7,9.6,30.39,South,170,0.0,0.0,59,0.00,,,0.00,Wunderground v.1.15,2013-01-15 10:46:00,
2013-01-15 03:52:00,21.5,10.1,30.39,South,170,0.0,0.0,61,0.00,,,0.00,Wunderground v.1.15,2013-01-15 10:52:00,
2013-01-15 03:58:00,21.3,9.9,30.39,South,170,0.0,0.0,61,0.00,,,0.00,Wunderground v.1.15,2013-01-15 10:58:00,
2013-01-15 04:04:00,21.2,10.2,30.39,South,170,0.0,0.0,62,0.00,,,0.00,Wunderground v.1.15,2013-01-15 11:04:00,
2013-01-15 04:10:00,21.2,10.2,30.39,South,170,0.0,0.0,62,0.00,,,0.00,Wunderground v.1.15,2013-01-15 11:10:00,
2013-01-15 04:16:00,21.3,10.7,30.39,South,170,0.0,0.0,63,0.00,,,0.00,Wunderground v.1.15,2013-01-15 11:16:00,
2013-01-15 04:22:00,21.3,10.3,30.39,South,170,0.0,0.0,62,0.00,,,0.00,Wunderground v.1.15,2013-01-15 11:22:00,
2013-01-15 04:28:00,21.3,10.7,30.39,South,170,0.0,0.0,63,0.00,,,0.00,Wunderground v.1.15,2013-01-15 11:28:00,
2013-01-15 04:34:00,21.3,10.3,30.39,South,170,0.0,0.0,62,0.00,,,0.00,Wunderground v.1.15,2013-01-15 11:34:00,
2013-01-15 04:40:00,21.3,10.3,30.40,South,170,0.0,0.0,62,0.00,,,0.00,Wunderground v.1.15,2013-01-15 11:40:00,
2013-01-15 04:46:00,21.3,10.3,30.39,South,170,0.0,0.0,62,0.00,,,0.00,Wunderground v.1.15,2013-01-15 11:46:00,
2013-01-15 04:52:00,21.3,10.3,30.40,South,170,0.0,0.0,62,0.00,,,0.00,Wunderground v.1.15,2013-01-15 11:52:00,
2013-01-15 04:58:00,21.3,10.3,30.40,South,170,0.0,0.0,62,0.00,,,0.00,Wunderground v.1.15,2013-01-15 11:58:00,
2013-01-15 05:04:00,21.2,10.6,30.40,South,170,0.0,0.0,63,0.00,,,0.00,Wunderground v.1.15,2013-01-15 12:04:00,
2013-01-15 05:10:00,21.1,10.8,30.40,South,170,0.0,0.0,64,0.00,,,0.00,Wunderground v.1.15,2013-01-15 12:10:00,
2013-01-15 05:16:00,20.8,10.5,30.41,South,170,0.0,0.0,64,0.00,,,0.00,Wunderground v.1.15,2013-01-15 12:16:00,
2013-01-15 05:22:00,20.6,10.3,30.40,South,170,0.0,0.0,64,0.00,,,0.00,Wunderground v.1.15,2013-01-15 12:22:00,
2013-01-15 05:28:00,20.4,10.1,30.41,South,170,0.0,0.0,64,0.00,,,0.00,Wunderground v.1.15,2013-01-15 12:28:00,
2013-01-15 05:34:00,20.3,11.1,30.41,South,170,0.0,0.0,67,0.00,,,0.00,Wunderground v.1.15,2013-01-15 12:34:00,
2013-01-15 05:40:00,20.3,10.4,30.41,South,170,0.0,0.0,65,0.00,,,0.00,Wunderground v.1.15,2013-01-15 12:40:00,
2013-01-15 05:46:00,20.3,10.4,30.41,South,170,0.0,0.0,65,0.00,,,0.00,Wunderground v.1.15,2013-01-15 12:46:00,
2013-01-15 05:52:00,20.4,10.8,30.41,South,170,0.0,0.0,66,0.00,,,0.00,Wunderground v.1.15,2013-01-15 12:52:00,
2013-01-15 05:58:00,20.4,10.5,30.41,South,170,0.0,0.0,65,0.00,,,0.00,Wunderground v.1.15,2013-01-15 12:58:00,
2013-01-15 06:04:00,20.5,10.6,30.42,South,170,0.0,0.0,65,0.00,,,0.00,Wunderground v.1.15,2013-01-15 13:04:00,
2013-01-15 06:10:00,20.5,10.6,30.42,South,170,0.0,0.0,65,0.00,,,0.00,Wunderground v.1.15,2013-01-15 13:10:00,
2013-01-15 06:16:00,20.4,10.5,30.42,South,170,0.0,0.0,65,0.00,,,0.00,Wunderground v.1.15,2013-01-15 13:16:00,
2013-01-15 06:22:00,20.3,10.4,30.42,South,170,0.0,0.0,65,0.00,,,0.00,Wunderground v.1.15,2013-01-15 13:22:00,
2013-01-15 06:28:00,20.6,11.0,30.43,South,170,0.0,0.0,66,0.00,,,0.00,Wunderground v.1.15,2013-01-15 13:28:00,
2013-01-15 06:34:00,20.5,10.6,30.43,South,170,0.0,0.0,65,0.00,,,0.00,Wunderground v.1.15,2013-01-15 13:34:00,
2013-01-15 06:40:00,20.2,10.6,30.44,South,170,0.0,0.0,66,0.00,,,0.00,Wunderground v.1.15,2013-01-15 13:40:00,
2013-01-15 06:46:00,19.9,10.7,30.44,SSE,167,0.0,0.0,67,0.00,,,0.00,Wunderground v.1.15,2013-01-15 13:46:00,
2013-01-15 06:52:00,20.0,11.1,30.44,SSE,167,0.0,0.0,68,0.00,,,0.00,Wunderground v.1.15,2013-01-15 13:52:00,
2013-01-15 06:58:00,20.0,10.8,30.44,SSE,167,0.0,0.0,67,0.00,,,0.00,Wunderground v.1.15,2013-01-15 13:58:00,
2013-01-15 07:04:00,20.0,10.8,30.44,SSE,167,0.0,0.0,67,0.00,,,0.00,Wunderground v.1.15,2013-01-15 14:04:00,
2013-01-15 07:10:00,20.1,10.9,30.44,SSE,167,0.0,0.0,67,0.00,,,0.00,Wunderground v.1.15,2013-01-15 14:10:00,
2013-01-15 07:16:00,20.1,10.9,30.44,SSE,167,0.0,0.0,67,0.00,,,0.00,Wunderground v.1.15,2013-01-15 14:16:00,
2013-01-15 07:22:00,19.9,10.7,30.45,SSE,167,0.0,0.0,67,0.00,,,0.00,Wunderground v.1.15,2013-01-15 14:22:00,
2013-01-15 07:28:00,19.7,10.8,30.45,SSE,167,0.0,0.0,68,0.00,,,0.00,Wunderground v.1.15,2013-01-15 14:28:00,
2013-01-15 07:34:00,19.7,10.8,30.45,SSE,167,0.0,0.0,68,0.00,,,0.00,Wunderground v.1.15,2013-01-15 14:34:00,
2013-01-15 07:40:00,19.7,10.5,30.45,SSE,167,0.0,0.0,67,0.00,,,0.00,Wunderground v.1.15,2013-01-15 14:40:00,
2013-01-15 07:46:00,19.7,10.5,30.46,SSE,167,0.0,0.0,67,0.00,,,0.00,Wunderground v.1.15,2013-01-15 14:46:00,
2013-01-15 07:52:00,20.0,11.1,30.46,SSE,167,0.0,0.0,68,0.00,,,0.00,Wunderground v.1.15,2013-01-15 14:52:00,
2013-01-15 07:58:00,20.3,11.1,30.46,SSE,167,0.0,0.0,67,0.00,,,0.00,Wunderground v.1.15,2013-01-15 14:58:00,
2013-01-15 08:04:00,20.9,11.3,30.46,SSE,167,0.0,0.0,66,0.00,,,0.00,Wunderground v.1.15,2013-01-15 15:04:00,
2013-01-15 08:10:00,22.1,10.7,30.46,SSE,167,0.0,0.0,61,0.00,,,0.00,Wunderground v.1.15,2013-01-15 15:10:00,
2013-01-15 08:16:00,23.4,10.8,30.46,SSE,167,0.0,0.0,58,0.00,,,0.00,Wunderground v.1.15,2013-01-15 15:16:00,
2013-01-15 08:22:00,24.5,10.6,30.47,SSE,164,0.0,0.0,55,0.00,,,0.00,Wunderground v.1.15,2013-01-15 15:22:00,
2013-01-15 08:28:00,25.6,10.4,30.47,SE,126,0.0,0.0,52,0.00,,,0.00,Wunderground v.1.15,2013-01-15 15:28:00,
2013-01-15 08:34:00,26.3,9.7,30.47,SE,144,0.0,0.0,49,0.00,,,0.00,Wunderground v.1.15,2013-01-15 15:34:00,
2013-01-15 08:40:00,26.7,9.6,30.48,SE,144,0.0,1.0,48,0.00,,,0.00,Wunderground v.1.15,2013-01-15 15:40:00,
2013-01-15 08:46:00,27.3,9.7,30.48,SE,144,0.0,1.0,47,0.00,,,0.00,Wunderground v.1.15,2013-01-15 15:46:00,
2013-01-15 08:52:00,28.3,10.1,30.48,SE,144,0.0,0.0,46,0.00,,,0.00,Wunderground v.1.15,2013-01-15 15:52:00,
2013-01-15 08:58:00,29.1,9.9,30.48,SE,144,0.0,0.0,44,0.00,,,0.00,Wunderground v.1.15,2013-01-15 15:58:00,
2013-01-15 09:04:00,29.8,10.0,30.48,SE,144,0.0,1.0,43,0.00,,,0.00,Wunderground v.1.15,2013-01-15 16:04:00,
2013-01-15 09:10:00,29.7,8.8,30.48,SE,144,0.0,0.0,41,0.00,,,0.00,Wunderground v.1.15,2013-01-15 16:10:00,
2013-01-15 09:16:00,29.4,8.6,30.49,South,186,0.0,0.0,41,0.00,,,0.00,Wunderground v.1.15,2013-01-15 16:16:00,
2013-01-15 09:22:00,29.4,8.6,30.49,South,190,0.0,0.0,41,0.00,,,0.00,Wunderground v.1.15,2013-01-15 16:22:00,
2013-01-15 09:28:00,30.1,8.7,30.49,South,190,0.0,0.0,40,0.00,,,0.00,Wunderground v.1.15,2013-01-15 16:28:00,
2013-01-15 09:34:00,30.7,9.2,30.49,NW,315,0.0,1.0,40,0.00,,,0.00,Wunderground v.1.15,2013-01-15 16:34:00,
2013-01-15 09:40:00,30.8,9.3,30.49,WNW,282,1.0,1.0,40,0.00,,,0.00,Wunderground v.1.15,2013-01-15 16:40:00,
2013-01-15 09:46:00,31.1,9.6,30.48,WNW,282,0.0,1.0,40,0.00,,,0.00,Wunderground v.1.15,2013-01-15 16:46:00,
2013-01-15 09:52:00,31.6,10.0,30.48,NW,309,0.0,1.0,40,0.00,,,0.00,Wunderground v.1.15,2013-01-15 16:52:00,
2013-01-15 09:58:00,32.4,10.2,30.49,NW,318,0.0,1.0,39,0.00,,,0.00,Wunderground v.1.15,2013-01-15 16:58:00,
2013-01-15 10:04:00,33.2,9.7,30.49,NNW,338,0.0,0.0,37,0.00,,,0.00,Wunderground v.1.15,2013-01-15 17:04:00,
2013-01-15 10:10:00,33.8,9.0,30.48,NNE,19,0.0,0.0,35,0.00,,,0.00,Wunderground v.1.15,2013-01-15 17:10:00,
2013-01-15 10:16:00,33.8,8.4,30.48,NNE,32,0.0,1.0,34,0.00,,,0.00,Wunderground v.1.15,2013-01-15 17:16:00,
2013-01-15 10:22:00,34.4,8.9,30.48,ENE,71,0.0,0.0,34,0.00,,,0.00,Wunderground v.1.15,2013-01-15 17:22:00,
2013-01-15 10:28:00,35.7,9.4,30.48,ENE,74,0.0,1.0,33,0.00,,,0.00,Wunderground v.1.15,2013-01-15 17:28:00,
2013-01-15 10:34:00,35.8,8.1,30.48,WNW,291,0.0,2.0,31,0.00,,,0.00,Wunderground v.1.15,2013-01-15 17:34:00,
2013-01-15 10:40:00,35.7,8.0,30.48,NW,325,0.0,0.0,31,0.00,,,0.00,Wunderground v.1.15,2013-01-15 17:40:00,
2013-01-15 10:46:00,35.6,7.2,30.47,NNW,336,1.0,2.0,30,0.00,,,0.00,Wunderground v.1.15,2013-01-15 17:46:00,
2013-01-15 10:52:00,36.0,7.5,30.47,NW,318,0.0,2.0,30,0.00,,,0.00,Wunderground v.1.15,2013-01-15 17:52:00,
2013-01-15 10:58:00,36.4,7.9,30.47,NW,318,0.0,2.0,30,0.00,,,0.00,Wunderground v.1.15,2013-01-15 17:58:00,
2013-01-15 11:04:00,37.0,6.9,30.46,NE,46,1.0,3.0,28,0.00,,,0.00,Wunderground v.1.15,2013-01-15 18:04:00,
2013-01-15 11:10:00,37.2,7.0,30.46,SE,132,1.0,2.0,28,0.00,,,0.00,Wunderground v.1.15,2013-01-15 18:10:00,
2013-01-15 11:16:00,37.6,7.4,30.45,NW,321,1.0,2.0,28,0.00,,,0.00,Wunderground v.1.15,2013-01-15 18:16:00,
2013-01-15 11:22:00,37.7,6.7,30.45,NNW,338,1.0,1.0,27,0.00,,,0.00,Wunderground v.1.15,2013-01-15 18:22:00,
2013-01-15 11:28:00,38.0,6.1,30.46,South,182,1.0,3.0,26,0.00,,,0.00,Wunderground v.1.15,2013-01-15 18:28:00,
2013-01-15 11:34:00,38.7,6.7,30.45,SSE,167,2.0,4.0,26,0.00,,,0.00,Wunderground v.1.15,2013-01-15 18:34:00,
2013-01-15 11:40:00,39.3,6.3,30.45,SSE,158,2.0,2.0,25,0.00,,,0.00,Wunderground v.1.15,2013-01-15 18:40:00,
2013-01-15 11:46:00,39.5,5.6,30.45,SSW,201,2.0,5.0,24,0.00,,,0.00,Wunderground v.1.15,2013-01-15 18:46:00,
2013-01-15 11:52:00,39.2,5.4,30.45,West,273,2.0,2.0,24,0.00,,,0.00,Wunderground v.1.15,2013-01-15 18:52:00,
2013-01-15 11:58:00,39.5,5.6,30.44,SE,140,1.0,2.0,24,0.00,,,0.00,Wunderground v.1.15,2013-01-15 18:58:00,
2013-01-15 12:04:00,40.3,5.4,30.44,East,80,1.0,2.0,23,0.00,,,0.00,Wunderground v.1.15,2013-01-15 19:04:00,
2013-01-15 12:10:00,40.8,5.8,30.43,WSW,254,1.0,1.0,23,0.00,,,0.00,Wunderground v.1.15,2013-01-15 19:10:00,
2013-01-15 12:16:00,40.8,4.8,30.43,WNW,286,1.0,1.0,22,0.00,,,0.00,Wunderground v.1.15,2013-01-15 19:16:00,
2013-01-15 12:22:00,40.7,5.7,30.42,ENE,66,1.0,1.0,23,0.00,,,0.00,Wunderground v.1.15,2013-01-15 19:22:00,
2013-01-15 12:28:00,40.9,4.9,30.42,ENE,76,1.0,1.0,22,0.00,,,0.00,Wunderground v.1.15,2013-01-15 19:28:00,
2013-01-15 12:34:00,41.3,5.2,30.42,SW,230,1.0,3.0,22,0.00,,,0.00,Wunderground v.1.15,2013-01-15 19:34:00,
2013-01-15 12:40:00,41.9,5.8,30.42,ESE,107,1.0,1.0,22,0.00,,,0.00,Wunderground v.1.15,2013-01-15 19:40:00,
2013-01-15 12:46:00,42.1,4.9,30.42,SSW,196,1.0,2.0,21,0.00,,,0.00,Wunderground v.1.15,2013-01-15 19:46:00,
2013-01-15 12:52:00,42.6,4.3,30.42,WSW,242,2.0,4.0,20,0.00,,,0.00,Wunderground v.1.15,2013-01-15 19:52:00,
2013-01-15 12:58:00,42.4,4.1,30.42,NE,44,2.0,4.0,20,0.00,,,0.00,Wunderground v.1.15,2013-01-15 19:58:00,
2013-01-15 13:04:00,42.4,4.1,30.42,West,270,1.0,1.0,20,0.00,,,0.00,Wunderground v.1.15,2013-01-15 20:04:00,
2013-01-15 13:10:00,42.5,4.2,30.41,West,261,2.0,2.0,20,0.00,,,0.00,Wunderground v.1.15,2013-01-15 20:10:00,
2013-01-15 13:16:00,42.3,4.0,30.40,NW,321,4.0,4.0,20,0.00,,,0.00,Wunderground v.1.15,2013-01-15 20:16:00,
2013-01-15 13:22:00,42.6,4.3,30.41,ESE,103,2.0,3.0,20,0.00,,,0.00,Wunderground v.1.15,2013-01-15 20:22:00,
2013-01-15 13:28:00,43.2,2.5,30.40,WNW,294,2.0,5.0,18,0.00,,,0.00,Wunderground v.1.15,2013-01-15 20:28:00,
2013-01-15 13:34:00,43.3,2.6,30.41,NW,310,3.0,5.0,18,0.00,,,0.00,Wunderground v.1.15,2013-01-15 20:34:00,
2013-01-15 13:40:00,43.2,3.6,30.40,East,99,3.0,3.0,19,0.00,,,0.00,Wunderground v.1.15,2013-01-15 20:40:00,
2013-01-15 13:46:00,43.3,2.6,30.41,NW,321,2.0,5.0,18,0.00,,,0.00,Wunderground v.1.15,2013-01-15 20:46:00,
2013-01-15 13:52:00,43.3,1.3,30.41,NW,315,3.0,4.0,17,0.00,,,0.00,Wunderground v.1.15,2013-01-15 20:52:00,
2013-01-15 13:58:00,43.7,1.6,30.40,WSW,242,3.0,4.0,17,0.00,,,0.00,Wunderground v.1.15,2013-01-15 20:58:00,
2013-01-15 14:04:00,44.2,2.1,30.40,West,269,2.0,6.0,17,0.00,,,0.00,Wunderground v.1.15,2013-01-15 21:04:00,
2013-01-15 14:10:00,44.3,0.8,30.40,NNW,327,2.0,6.0,16,0.00,,,0.00,Wunderground v.1.15,2013-01-15 21:10:00,
2013-01-15 14:16:00,44.6,-0.3,30.40,NW,313,3.0,6.0,15,0.00,,,0.00,Wunderground v.1.15,2013-01-15 21:16:00,
2013-01-15 14:22:00,45.2,0.2,30.39,North,355,1.0,3.0,15,0.00,,,0.00,Wunderground v.1.15,2013-01-15 21:22:00,
2013-01-15 14:28:00,45.5,-1.0,30.39,ESE,113,1.0,3.0,14,0.00,,,0.00,Wunderground v.1.15,2013-01-15 21:28:00,
2013-01-15 14:34:00,46.1,-2.1,30.39,West,269,1.0,4.0,13,0.00,,,0.00,Wunderground v.1.15,2013-01-15 21:34:00,
2013-01-15 14:40:00,46.4,-1.9,30.39,SSE,166,1.0,3.0,13,0.00,,,0.00,Wunderground v.1.15,2013-01-15 21:40:00,
2013-01-15 14:46:00,47.2,-1.2,30.39,SSW,204,1.0,3.0,13,0.00,,,0.00,Wunderground v.1.15,2013-01-15 21:46:00,
2013-01-15 14:52:00,47.8,0.8,30.39,SSE,154,1.0,1.0,14,0.00,,,0.00,Wunderground v.1.15,2013-01-15 21:52:00,
2013-01-15 14:58:00,47.6,-0.9,30.39,NE,55,2.0,3.0,13,0.00,,,0.00,Wunderground v.1.15,2013-01-15 21:58:00,
2013-01-15 15:04:00,46.7,-1.6,30.39,NNE,21,2.0,3.0,13,0.00,,,0.00,Wunderground v.1.15,2013-01-15 22:04:00,
2013-01-15 15:10:00,46.8,0.0,30.38,ENE,67,1.0,2.0,14,0.00,,,0.00,Wunderground v.1.15,2013-01-15 22:10:00,
2013-01-15 15:16:00,46.8,-1.6,30.38,SSW,207,1.0,2.0,13,0.00,,,0.00,Wunderground v.1.15,2013-01-15 22:16:00,
2013-01-15 15:22:00,46.9,-1.5,30.38,WNW,290,1.0,1.0,13,0.00,,,0.00,Wunderground v.1.15,2013-01-15 22:22:00,
2013-01-15 15:28:00,47.2,0.3,30.38,East,87,1.0,2.0,14,0.00,,,0.00,Wunderground v.1.15,2013-01-15 22:28:00,
2013-01-15 15:34:00,47.1,0.2,30.38,ESE,117,1.0,2.0,14,0.00,,,0.00,Wunderground v.1.15,2013-01-15 22:34:00,
2013-01-15 15:40:00,47.1,0.2,30.38,ESE,111,1.0,1.0,14,0.00,,,0.00,Wunderground v.1.15,2013-01-15 22:40:00,
2013-01-15 15:46:00,47.0,0.2,30.39,ESE,121,1.0,2.0,14,0.00,,,0.00,Wunderground v.1.15,2013-01-15 22:46:00,
2013-01-15 15:52:00,47.2,0.3,30.39,ESE,119,1.0,3.0,14,0.00,,,0.00,Wunderground v.1.15,2013-01-15 22:52:00,
2013-01-15 15:58:00,47.2,0.3,30.39,East,101,1.0,3.0,14,0.00,,,0.00,Wunderground v.1.15,2013-01-15 22:58:00,
2013-01-15 16:04:00,47.2,0.3,30.39,NNE,19,1.0,3.0,14,0.00,,,0.00,Wunderground v.1.15,2013-01-15 23:04:00,
2013-01-15 16:10:00,47.0,0.2,30.39,North,9,1.0,1.0,14,0.00,,,0.00,Wunderground v.1.15,2013-01-15 23:10:00,
2013-01-15 16:16:00,47.6,0.7,30.39,East,93,1.0,3.0,14,0.00,,,0.00,Wunderground v.1.15,2013-01-15 23:16:00,
2013-01-15 16:22:00,47.3,1.9,30.39,ENE,61,1.0,1.0,15,0.00,,,0.00,Wunderground v.1.15,2013-01-15 23:22:00,
2013-01-15 16:28:00,47.0,0.2,30.39,ENE,67,1.0,2.0,14,0.00,,,0.00,Wunderground v.1.15,2013-01-15 23:28:00,
2013-01-15 16:34:00,46.7,-0.1,30.39,ENE,62,1.0,1.0,14,0.00,,,0.00,Wunderground v.1.15,2013-01-15 23:34:00,
2013-01-15 16:40:00,46.4,-0.3,30.40,ENE,69,1.0,1.0,14,0.00,,,0.00,Wunderground v.1.15,2013-01-15 23:40:00,
2013-01-15 16:46:00,46.2,-0.5,30.40,NNW,328,2.0,3.0,14,0.00,,,0.00,Wunderground v.1.15,2013-01-15 23:46:00,
2013-01-15 16:52:00,46.3,1.1,30.40,ENE,73,1.0,1.0,15,0.00,,,0.00,Wunderground v.1.15,2013-01-15 23:52:00,
2013-01-15 16:58:00,46.3,1.1,30.40,NE,44,0.0,2.0,15,0.00,,,0.00,Wunderground v.1.15,2013-01-15 23:58:00,
2013-01-15 17:04:00,46.1,-0.6,30.40,NNE,24,1.0,3.0,14,0.00,,,0.00,Wunderground v.1.15,2013-01-16 00:04:00,
2013-01-15 17:10:00,46.0,0.8,30.40,NNE,24,0.0,0.0,15,0.00,,,0.00,Wunderground v.1.15,2013-01-16 00:10:00,
2013-01-15 17:16:00,45.8,0.7,30.40,NNE,24,0.0,0.0,15,0.00,,,0.00,Wunderground v.1.15,2013-01-16 00:16:00,
2013-01-15 17:22:00,45.5,0.4,30.40,NNE,23,0.0,0.0,15,0.00,,,0.00,Wunderground v.1.15,2013-01-16 00:22:00,
2013-01-15 17:28:00,45.3,1.7,30.40,NNE,23,0.0,0.0,16,0.00,,,0.00,Wunderground v.1.15,2013-01-16 00:28:00,
2013-01-15 17:34:00,44.8,1.2,30.40,NNE,24,0.0,0.0,16,0.00,,,0.00,Wunderground v.1.15,2013-01-16 00:34:00,
2013-01-15 17:40:00,44.3,2.1,30.40,NNE,23,0.0,0.0,17,0.00,,,0.00,Wunderground v.1.15,2013-01-16 00:40:00,
2013-01-15 17:46:00,43.9,3.0,30.40,NNE,24,0.0,0.0,18,0.00,,,0.00,Wunderground v.1.15,2013-01-16 00:46:00,
2013-01-15 17:52:00,43.1,2.4,30.40,NNE,23,0.0,0.0,18,0.00,,,0.00,Wunderground v.1.15,2013-01-16 00:52:00,
2013-01-15 17:58:00,42.3,5.1,30.40,NNE,23,0.0,0.0,21,0.00,,,0.00,Wunderground v.1.15,2013-01-16 00:58:00,
2013-01-15 18:04:00,41.4,7.2,30.40,NNE,23,0.0,0.0,24,0.00,,,0.00,Wunderground v.1.15,2013-01-16 01:04:00,
2013-01-15 18:10:00,40.6,7.5,30.41,NNE,24,0.0,0.0,25,0.00,,,0.00,Wunderground v.1.15,2013-01-16 01:10:00,
2013-01-15 18:16:00,40.0,4.1,30.41,West,274,1.0,4.0,22,0.00,,,0.00,Wunderground v.1.15,2013-01-16 01:16:00,
2013-01-15 18:22:00,40.2,4.3,30.42,WNW,290,3.0,3.0,22,0.00,,,0.00,Wunderground v.1.15,2013-01-16 01:22:00,
2013-01-15 18:28:00,40.2,4.3,30.41,West,276,3.0,3.0,22,0.00,,,0.00,Wunderground v.1.15,2013-01-16 01:28:00,
2013-01-15 18:34:00,40.2,4.3,30.41,West,271,2.0,3.0,22,0.00,,,0.00,Wunderground v.1.15,2013-01-16 01:34:00,
2013-01-15 18:40:00,40.1,4.2,30.42,WNW,294,2.0,2.0,22,0.00,,,0.00,Wunderground v.1.15,2013-01-16 01:40:00,
2013-01-15 18:46:00,39.9,4.1,30.42,West,279,1.0,3.0,22,0.00,,,0.00,Wunderground v.1.15,2013-01-16 01:46:00,
2013-01-15 18:52:00,39.7,3.9,30.42,West,273,1.0,2.0,22,0.00,,,0.00,Wunderground v.1.15,2013-01-16 01:52:00,
2013-01-15 18:58:00,39.4,4.6,30.42,West,270,1.0,2.0,23,0.00,,,0.00,Wunderground v.1.15,2013-01-16 01:58:00,
2013-01-15 19:04:00,39.2,4.4,30.43,WNW,285,1.0,3.0,23,0.00,,,0.00,Wunderground v.1.15,2013-01-16 02:04:00,
2013-01-15 19:10:00,39.1,4.4,30.43,West,280,2.0,2.0,23,0.00,,,0.00,Wunderground v.1.15,2013-01-16 02:10:00,
2013-01-15 19:16:00,38.8,4.1,30.43,West,277,2.0,4.0,23,0.00,,,0.00,Wunderground v.1.15,2013-01-16 02:16:00,
2013-01-15 19:22:00,38.8,4.1,30.44,WNW,283,2.0,2.0,23,0.00,,,0.00,Wunderground v.1.15,2013-01-16 02:22:00,
2013-01-15 19:28:00,38.6,4.9,30.44,West,271,1.0,4.0,24,0.00,,,0.00,Wunderground v.1.15,2013-01-16 02:28:00,
2013-01-15 19:34:00,38.3,4.6,30.44,WNW,292,1.0,3.0,24,0.00,,,0.00,Wunderground v.1.15,2013-01-16 02:34:00,
2013-01-15 19:40:00,38.1,4.4,30.44,WNW,286,2.0,2.0,24,0.00,,,0.00,Wunderground v.1.15,2013-01-16 02:40:00,
2013-01-15 19:46:00,38.0,4.3,30.44,WNW,296,1.0,3.0,24,0.00,,,0.00,Wunderground v.1.15,2013-01-16 02:46:00,
2013-01-15 19:52:00,37.8,4.2,30.44,WNW,292,2.0,2.0,24,0.00,,,0.00,Wunderground v.1.15,2013-01-16 02:52:00,
2013-01-15 19:58:00,37.6,4.0,30.44,WNW,292,1.0,2.0,24,0.00,,,0.00,Wunderground v.1.15,2013-01-16 02:58:00,
2013-01-15 20:04:00,37.5,3.9,30.44,WNW,293,1.0,2.0,24,0.00,,,0.00,Wunderground v.1.15,2013-01-16 03:04:00,
2013-01-15 20:10:00,37.4,3.8,30.45,WNW,288,2.0,2.0,24,0.00,,,0.00,Wunderground v.1.15,2013-01-16 03:10:00,
2013-01-15 20:16:00,37.5,3.9,30.45,WNW,296,2.0,4.0,24,0.00,,,0.00,Wunderground v.1.15,2013-01-16 03:16:00,
2013-01-15 20:22:00,37.4,3.8,30.45,West,281,2.0,3.0,24,0.00,,,0.00,Wunderground v.1.15,2013-01-16 03:22:00,
2013-01-15 20:28:00,37.3,3.7,30.45,West,277,2.0,3.0,24,0.00,,,0.00,Wunderground v.1.15,2013-01-16 03:28:00,
2013-01-15 20:34:00,37.2,3.7,30.44,WNW,284,2.0,8.0,24,0.00,,,0.00,Wunderground v.1.15,2013-01-16 03:34:00,
2013-01-15 20:40:00,37.2,3.7,30.44,West,263,3.0,3.0,24,0.00,,,0.00,Wunderground v.1.15,2013-01-16 03:40:00,
2013-01-15 20:46:00,37.2,3.7,30.44,WNW,296,3.0,5.0,24,0.00,,,0.00,Wunderground v.1.15,2013-01-16 03:46:00,
2013-01-15 20:52:00,37.1,3.6,30.45,WNW,286,3.0,3.0,24,0.00,,,0.00,Wunderground v.1.15,2013-01-16 03:52:00,
2013-01-15 20:58:00,37.2,2.7,30.45,NW,305,3.0,7.0,23,0.00,,,0.00,Wunderground v.1.15,2013-01-16 03:58:00,
2013-01-15 21:04:00,37.1,2.7,30.45,WNW,292,4.0,4.0,23,0.00,,,0.00,Wunderground v.1.15,2013-01-16 04:04:00,
2013-01-15 21:10:00,36.9,3.4,30.45,NW,306,2.0,4.0,24,0.00,,,0.00,Wunderground v.1.15,2013-01-16 04:10:00,
2013-01-15 21:16:00,36.7,3.2,30.45,NW,304,2.0,4.0,24,0.00,,,0.00,Wunderground v.1.15,2013-01-16 04:16:00,
2013-01-15 21:22:00,36.6,3.1,30.45,WNW,295,2.0,2.0,24,0.00,,,0.00,Wunderground v.1.15,2013-01-16 04:22:00,
2013-01-15 21:28:00,36.4,3.0,30.45,NW,311,2.0,2.0,24,0.00,,,0.00,Wunderground v.1.15,2013-01-16 04:28:00,
2013-01-15 21:34:00,36.1,3.6,30.45,West,277,1.0,2.0,25,0.00,,,0.00,Wunderground v.1.15,2013-01-16 04:34:00,
2013-01-15 21:40:00,35.8,3.3,30.45,West,277,0.0,0.0,25,0.00,,,0.00,Wunderground v.1.15,2013-01-16 04:40:00,
2013-01-15 21:46:00,35.5,3.9,30.45,West,277,0.0,0.0,26,0.00,,,0.00,Wunderground v.1.15,2013-01-16 04:46:00,
2013-01-15 21:52:00,35.1,4.4,30.44,West,277,0.0,0.0,27,0.00,,,0.00,Wunderground v.1.15,2013-01-16 04:52:00,
2013-01-15 21:58:00,34.5,3.9,30.45,West,277,0.0,0.0,27,0.00,,,0.00,Wunderground v.1.15,2013-01-16 04:58:00,
2013-01-15 22:00:00,34.3,5.3,30.45,West,277,0.0,1.0,29,0.00,,,0.00,Wunderground v.1.15,2013-01-16 05:00:00,
2013-01-15 22:04:00,33.9,4.9,30.45,West,277,0.0,1.0,29,0.00,,,0.00,Wunderground v.1.15,2013-01-16 05:04:00,
2013-01-15 22:06:00,33.8,5.6,30.45,West,277,0.0,1.0,30,0.00,,,0.00,Wunderground v.1.15,2013-01-16 05:06:00,
2013-01-15 22:10:00,33.5,5.3,30.45,West,277,0.0,0.0,30,0.00,,,0.00,Wunderground v.1.15,2013-01-16 05:10:00,
2013-01-15 22:16:00,33.1,5.0,30.45,West,277,0.0,0.0,30,0.00,,,0.00,Wunderground v.1.15,2013-01-16 05:16:00,
2013-01-15 22:22:00,32.6,5.3,30.45,West,277,0.0,0.0,31,0.00,,,0.00,Wunderground v.1.15,2013-01-16 05:22:00,
2013-01-15 22:28:00,32.3,5.7,30.46,WSW,244,0.0,0.0,32,0.00,,,0.00,Wunderground v.1.15,2013-01-16 05:28:00,
2013-01-15 22:34:00,32.0,6.1,30.46,WSW,244,0.0,0.0,33,0.00,,,0.00,Wunderground v.1.15,2013-01-16 05:34:00,
2013-01-15 22:40:00,31.6,6.4,30.46,WSW,244,0.0,0.0,34,0.00,,,0.00,Wunderground v.1.15,2013-01-16 05:40:00,
2013-01-15 22:46:00,31.3,7.4,30.46,WSW,244,0.0,0.0,36,0.00,,,0.00,Wunderground v.1.15,2013-01-16 05:46:00,
2013-01-15 22:52:00,31.0,7.7,30.46,WSW,244,0.0,0.0,37,0.00,,,0.00,Wunderground v.1.15,2013-01-16 05:52:00,
2013-01-15 22:58:00,30.7,7.5,30.47,SW,217,0.0,0.0,37,0.00,,,0.00,Wunderground v.1.15,2013-01-16 05:58:00,
2013-01-15 23:04:00,30.7,9.2,30.47,SW,216,0.0,0.0,40,0.00,,,0.00,Wunderground v.1.15,2013-01-16 06:04:00,
2013-01-15 23:10:00,30.6,8.0,30.47,SW,216,0.0,0.0,38,0.00,,,0.00,Wunderground v.1.15,2013-01-16 06:10:00,
2013-01-15 23:16:00,30.5,7.9,30.47,SW,216,0.0,0.0,38,0.00,,,0.00,Wunderground v.1.15,2013-01-16 06:16:00,
2013-01-15 23:22:00,30.1,8.7,30.47,SW,216,0.0,0.0,40,0.00,,,0.00,Wunderground v.1.15,2013-01-16 06:22:00,
2013-01-15 23:28:00,29.7,9.4,30.46,SW,216,0.0,0.0,42,0.00,,,0.00,Wunderground v.1.15,2013-01-16 06:28:00,
2013-01-15 23:34:00,29.4,10.1,30.46,SW,216,0.0,0.0,44,0.00,,,0.00,Wunderground v.1.15,2013-01-16 06:34:00,
2013-01-15 23:40:00,29.0,9.3,30.47,SW,216,0.0,0.0,43,0.00,,,0.00,Wunderground v.1.15,2013-01-16 06:40:00,
2013-01-15 23:46:00,28.8,9.6,30.46,SW,216,0.0,0.0,44,0.00,,,0.00,Wunderground v.1.15,2013-01-16 06:46:00,
2013-01-15 23:52:00,28.7,10.0,30.46,SW,216,0.0,0.0,45,0.00,,,0.00,Wunderground v.1.15,2013-01-16 06:52:00,
2013-01-15 23:58:00,28.6,9.4,30.47,SW,216,0.0,0.0,44,0.00,,,0.00,Wunderground v.1.15,2013-01-16 06:58:00,